Regional Weather Roundup
Issued by NWS Upton, NY

Home | Current Version | Previous Version | Text Only | Print | Product List | Glossary On
Versions: 1 2 3 4 5 6 7 8 9 10 11 12 13 14 15 16 17 18 19 20 21 22 23 24 25 26 27
000
ASUS41 KOKX 260709
RWROKX

REGIONAL WEATHER ROUNDUP
NATIONAL WEATHER SERVICE NEW YORK NY
300 AM EDT FRI MAY 26 2017

NOTE: "FAIR" INDICATES FEW OR NO CLOUDS BELOW 12,000 FEET WITH NO
SIGNIFICANT WEATHER AND/OR OBSTRUCTIONS TO VISIBILITY.

NYZ071-072-176-178-NJZ106-104-260800-
NEW YORK CITY METRO AREA

CITY           SKY/WX    TMP DP  RH WIND       PRES   REMARKS
Central Park   LGT RAIN  57  56  96 CALM      29.49R
Wall St Helipt CLOUDY    57  55  94 CALM      29.47R
Bronx Bot Gard   N/A     55  54  94 N3        29.48R
LaGuardia APRT LGT RAIN  58  55  90 N6        29.45S
Kennedy INTL   LGT RAIN  57  57 100 NW8       29.47R
Breezy Point     N/A     57 N/A N/A N7          N/A
Newark/Liberty LGT RAIN  56  56 100 N9        29.46R
Teterboro      CLOUDY    57  56  96 N6        29.45S
$$

NYZ177-179-078>081-260800-
LONG ISLAND NEW YORK

CITY           SKY/WX    TMP DP  RH WIND       PRES   REMARKS
Jones Beach      N/A     57 N/A N/A NE10        N/A
Matinecock PT    N/A    102 N/A N/A NE13        N/A
Farmingdale    CLOUDY    56  55  97 NE9       29.43F
MacArthur/ISP  LGT RAIN  55  55 100 NE15      29.44S
Shirley        LGT RAIN  55  55 100 N7        29.45F
Mt Sinai Harb    N/A     54 N/A N/A NE8         N/A
Westhampton    LGT RAIN  57  55  93 E6        29.46F
East Hampton   RAIN      54  53  97 E3        29.46F
Montauk          N/A     54  53  97 E10       29.47F
$$

NYZ052-065-067-260800-
HUDSON VALLEY

CITY           SKY/WX    TMP DP  RH WIND       PRES   REMARKS
White Plains   CLOUDY    54  52  93 N7        29.45F
Larchmont Harb   N/A     55 N/A N/A NW9         N/A
Croton O-T Hud   N/A     55 N/A N/A NW5         N/A
Newburgh       LGT RAIN  54  54 100 N9        29.50S
Montgomery     LGT RAIN  54  52  93 NE9       29.49S
Poughkeepsie   RAIN      54  52  93 N8        29.48F FOG
Albany         LGT RAIN  53  50  89 N8        29.53F
$$

NJZ001-105-106-008-010-013-015-019>022-104-260800-
NEW JERSEY

CITY           SKY/WX    TMP DP  RH WIND       PRES   REMARKS
Newark/Liberty LGT RAIN  56  56 100 N9        29.46R
Teterboro      CLOUDY    57  56  96 N6        29.45S
Caldwell       CLOUDY    58  55  90 NE3       29.47S
Somerville     CLOUDY    58  57  97 S5        29.47R
Linden         DRIZZLE   58  56  92 CALM      29.47R
Perth Amboy      N/A     59 N/A N/A SW5         N/A
Sussex         CLOUDY    56  54  93 CALM      29.51S
Andover          N/A     55  53  93 N6        29.50R
Trenton        CLOUDY    57  56  96 W5        29.50R
Millville      CLOUDY    60  60 100 W10       29.52R
Atlantic City  LGT RAIN  59  57  93 SW3       29.51S
Wrightstown    CLOUDY    58  56  96 SW12      29.48R
Toms River     CLOUDY    57  56  96 W6        29.51R
Belmar         CLOUDY    57  56  96 SW8       29.50R
$$

PAZ047>061-062-071-260800-
EASTERN PENNSYLVANIA

CITY           SKY/WX    TMP DP  RH WIND       PRES   REMARKS
Philadelphia   LGT RAIN  59  57  93 W8        29.53R
Allentown      CLOUDY    59  56  89 W5        29.51R
Scranton       LGT RAIN  58  56  93 CALM      29.51S
$$

CTZ002-004>006-009-010-012-RIZ004-006-007-MAZ004-011-015-260800-
SOUTHERN NEW ENGLAND
 IN CT

CITY           SKY/WX    TMP DP  RH WIND       PRES   REMARKS
Bradley INTL   LGT RAIN  50  49  96 N12       29.50F
Hartford       LGT RAIN  52  50  93 N10       29.49F
Danbury        HVY RAIN  52  52 100 NE6       29.49S FOG
Wtrbury/Oxford   N/A     50  46  87 NE12G18   29.49F
Bridgeport     HVY RAIN  55  52  89 NE9       29.47R FOG
Meriden        LGT RAIN  51  49  92 N7        29.49S
New Haven      RAIN      52  50  93 N16       29.46S
Chester        RAIN      52  52 100 N6        29.48R
Groton         LGT RAIN  54  52  93 SE3       29.48R
Wilimantic     LGT RAIN  53  50  89 N10       29.49F

 IN RI

CITY           SKY/WX    TMP DP  RH WIND       PRES   REMARKS
Providence     LGT RAIN  51  51 100 N16G22    29.48F
Block Island   HVY RAIN  53  52  96 NE7       29.50S FOG
Westerly       LGT RAIN  54  52  93 NE8       29.49R
 IN MA

CITY           SKY/WX    TMP DP  RH WIND       PRES   REMARKS
Boston         DRIZZLE   50  49  96 N7        29.56R FOG
Worcester      LGT RAIN  46  44  93 NE15G25   29.49F
Westfield      LGT RAIN  50  50 100 N10       29.50F
Provincetown   LGT RAIN  57  56  96 SW7       29.50F
Nantucket      CLOUDY   N/A N/A N/A SE7       29.48F FOG
$$

ANZ330-335-338-340-345-350-353-355-260800-
COASTAL MARINE OBSERVATIONS


STATION/POSITION TIME  SKY/WX   TEMP    WIND        PRES    VSBY  WAVE
                                AIR SEA DIR/SP/G                  HT/PER
                 (UTC)          (F)     (DEG/KT/KT) (MB)    (MI)  (FT/S)
NY HARB ENTRANCE 0550            57 56  330/ 14/ 16  996.8          5/ 8
20 S FIRE ISLAND 0650            56 55  220/ 16/ 17  996.5          6/ 8
GREAT SOUTH BAY  0615            58 62   20/ 10/ 14   N/A
23 SSW MONTAUK P 0650            56 54               998.1          6/ 8
15 E BARNEGAT LI 0630               58                N/A           5/ 8
HUDSON CANYON    0550            57 54  200/ 16/ 19  998.8          6/ 8
KINGS POINT      0648            56 57   60/  5/  9  997.1
EXECUTION ROCKS  0645            57                   N/A
CENTRAL LI SOUND 0615            54      20/ 10/ 12   N/A           1/ 4
EASTERN LI SOUND NOT AVBL
ROBBINS REEF     0648            58     350/ 11/ 13  997.8
$$


>>>>>>>>>>>>>>>>>>>>>>>>>>>> KEY <<<<<<<<<<<<<<<<<<<<<<<<<<<
>                                                          <
>     SKY/WX - Sky Condition/Present Weather               <
>     TMP    - Temperature in Fahrenheit                   <
>     DP     - Dew Point in Fahrenheit                     <
>     RH     - Relative Humidity in Percent                <
>     WIND   - Direction (from) and Speed in MPH           <
>     PRES   - Mean Sea Level Pressure (inches of Hg)      <
>     WCI    - Wind Chill Index                            <
>     VSB    - VISIBILITY IN MILES                         <
>     HX     - HEAT INDEX                                  <
>     TC     - TEMPERATURE IN CELSIUS                      <
>     VRB    - VARIABLE WIND DIRECTION                     <
>                                                          <
>>>>>>>>>>>>>>>>>>>>>>>>>>>> KEY <<<<<<<<<<<<<<<<<<<<<<<<<<<




USA.gov is the U.S. government's official web portal to all federal, state and local government web resources and services.